VK1ET-13 Weather Reports


Display with metric or nautical units.
time (UTC)temp
F
wind
direction
speed
MPH
gust
MPH
rain 1hr
in
rain 24hr
in
rain mn
in
humidity
%
barometer
mb
20200925040022 42 0.0 9.0 0.00 0.00 0.00 95 1000.3
20200925035021 42 0.0 4.0 0.00 0.00 0.00 95 1000.4
20200925034020 42 0.0 4.0 0.00 0.00 0.00 95 1000.5
20200925033020 42 0.0 4.0 0.00 0.00 0.00 95 1000.8
20200925032019 42 0.0 3.0 0.00 0.00 0.00 95 1000.9
20200925031020 42 0.0 0.0 0.00 0.00 0.00 94 1001.0
20200925024021 41 0.0 0.0 0.00 0.00 0.00 93 1001.5
20200925023021 41 0.0 6.0 0.00 0.00 0.00 93 1001.8
20200925015020 42 293 1.0 7.0 0.00 0.00 0.00 91 1002.2
20200925014020 43 0.0 6.0 0.00 0.00 0.00 90 1002.4
20200925013021 44 0.0 5.0 0.00 0.00 0.00 89 1002.1
20200925011018 45 0.0 6.0 0.00 0.00 0.00 89 1002.5
20200925005027 46 293 2.0 9.0 0.00 0.00 0.00 91 1002.4
20200925003024 50 293 2.0 11.0 0.00 0.00 0.00 84 1002.3
20200925000029 50 0 1.0 8.0 0.00 0.00 0.00 86 1002.7
20200924235022 49 338 1.0 7.0 0.00 0.00 0.00 86 1003.1
20200924234029 49 338 2.0 7.0 0.00 0.00 0.00 87 1003.3
20200924233028 48 338 2.0 13.0 0.00 0.00 0.00 88 1003.2
20200924225027 46 0 1.0 6.0 0.00 0.00 0.00 93 1003.8
20200924224021 46 0 2.0 8.0 0.00 0.00 0.00 93 1003.9
20200924222027 45 0 2.0 5.0 0.00 0.00 0.00 95 1004.0
20200924221018 44 0 1.0 5.0 0.00 0.00 0.00 95 1004.1
20200924220028 44 0.0 4.0 0.00 0.00 0.00 95 1004.3
20200924214021 44 0.0 0.0 0.00 0.00 0.00 96 1004.6
20200924213029 43 0.0 0.0 0.00 0.00 0.00 96 1004.5
20200924212027 43 0.0 0.0 0.00 0.00 0.00 95 1004.7
20200924210022 43 0.0 0.0 0.00 0.00 0.00 95 1004.4
20200924205020 42 0.0 1.0 0.00 0.00 0.00 94 1004.4
20200924202021 42 0.0 0.0 0.00 0.00 0.00 94 1004.8
20200924195019 42 0.0 0.0 0.00 0.00 0.00 93 1005.0
20200924193024 42 0.0 0.0 0.00 0.00 0.00 93 1005.3
20200924191024 42 0.0 0.0 0.00 0.00 0.00 93 1005.8
20200924185022 42 0.0 0.0 0.00 0.00 0.00 92 1006.0
20200924184021 42 0.0 0.0 0.00 0.00 0.00 92 1006.0
20200924183025 42 0.0 0.0 0.00 0.00 0.00 92 1006.3
20200924182024 42 0.0 0.0 0.00 0.00 0.00 91 1006.4
20200924181019 42 0.0 0.0 0.00 0.00 0.00 90 1006.8
20200924174030 42 0.0 0.0 0.00 0.00 0.00 89 1006.9
20200924172021 42 0.0 0.0 0.00 0.00 0.00 89 1007.4
20200924170025 42 0.0 0.0 0.00 0.00 0.00 89 1007.9
20200924164021 41 0.0 0.0 0.00 0.00 0.00 90 1008.0
20200924163031 41 0.0 0.0 0.00 0.00 0.00 90 1008.1
20200924161022 42 0.0 0.0 0.00 0.00 0.00 88 1008.5
20200924160021 42 0.0 0.0 0.00 0.00 0.00 88 1008.6
20200924151020 43 0.0 0.0 0.00 0.00 0.00 87 1009.5
20200924145020 43 0.0 0.0 0.00 0.00 0.00 87 1009.8
20200924135033 43 0.0 0.0 0.00 0.00 0.00 87 1010.1
20200924132019 43 0.0 0.0 0.00 0.00 0.00 87 1010.8
20200924131020 43 0.0 0.0 0.00 0.00 0.00 87 1010.7
20200924130024 43 0.0 0.0 0.00 0.00 0.00 86 1011.0
20200924125020 43 0.0 0.0 0.00 0.00 0.00 85 1010.9
20200924124024 43 0.0 0.0 0.00 0.00 0.00 85 1011.0
20200924123037 44 0.0 0.0 0.00 0.00 0.00 84 1011.5
20200924122020 44 0.0 0.0 0.00 0.00 0.00 83 1011.6
20200924115021 45 0.0 0.0 0.00 0.00 0.00 80 1012.0
20200924113023 45 0.0 0.0 0.00 0.00 0.00 80 1012.1
20200924112019 45 0.0 0.0 0.00 0.00 0.00 78 1012.2
20200924111018 46 0.0 0.0 0.00 0.00 0.00 77 1012.2
20200924104023 47 0.0 0.0 0.00 0.00 0.00 75 1012.7
20200924100028 47 0.0 0.0 0.00 0.00 0.00 73 1012.5
20200924095021 48 0.0 5.0 0.00 0.00 0.00 73 1012.6
20200924094021 48 0.0 4.0 0.00 0.00 0.00 73 1012.4
20200924093020 48 0.0 5.0 0.00 0.00 0.00 73 1012.4
20200924092022 48 0.0 6.0 0.00 0.00 0.00 73 1012.3
20200924091020 48 0.0 7.0 0.00 0.00 0.00 74 1012.1
20200924090022 48 293 1.0 7.0 0.00 0.00 0.00 74 1011.9
20200924085023 48 0.0 5.0 0.00 0.00 0.00 74 1011.7
20200924075018 50 0.0 2.0 0.00 0.00 0.00 68 1011.2
20200924073028 51 0.0 6.0 0.00 0.00 0.00 67 1011.1
20200924072019 52 0.0 5.0 0.00 0.00 0.00 65 1010.9
20200924071018 52 0.0 2.0 0.00 0.00 0.00 64 1010.8
20200924070022 52 0.0 7.0 0.00 0.00 0.00 62 1010.7
20200924064020 53 293 1.0 10.0 0.00 0.00 0.00 61 1010.9
20200924063024 54 293 1.0 8.0 0.00 0.00 0.00 59 1010.9
20200924060021 56 293 1.0 9.0 0.00 0.00 0.00 56 1011.1
20200924054021 55 270 1.0 8.0 0.00 0.00 0.00 58 1011.1
20200924053021 55 293 1.0 9.0 0.00 0.00 0.00 60 1011.1
20200924052019 55 0.0 0.0 0.00 0.00 0.00 66 1011.3
20200924051021 54 315 2.0 11.0 0.00 0.00 0.00 64 1011.3
20200924045020 54 270 1.0 14.0 0.00 0.00 0.00 62 1011.5
20200924044018 54 293 2.0 10.0 0.00 0.00 0.00 63 1011.6
20200924043020 55 270 3.0 15.0 0.00 0.00 0.00 62 1011.8